Prince George,

1:29 AM PST on January 20, 2018 (GMT -0800)
Prince George

Weather History for CYXS - February, 2013

Change the Weather History Date:

Tuesday, February 19, 2013

  Actual Average Record
Temperature  
Mean Temperature 26 °F -  
Max Temperature 29 °F 37 °F 48 °F (1998)
Min Temperature 24 °F 18 °F -27 °F (2011)
Degree Days  
Heating Degree Days 38    
Moisture  
Dew Point 25 °F    
Average Humidity 91    
Maximum Humidity 100    
Minimum Humidity 69    
Precipitation  
Precipitation 0.03 in 0.05 in - ()
Sea Level Pressure  
Sea Level Pressure 29.91 in    
Wind  
Wind Speed 4 mph ()    
Max Wind Speed 13 mph    
Max Gust Speed 20 mph    
Visibility 6.3 miles    
Events Snow    
Averages and records for this station are not official NWS values.
T = Trace of Precipitation, MM = Missing Value Source: Averaged Metar Reports

Daily Weather History Graph

Daily Weather History Graph

Search for Another Location

Airport or City:

Trip Planner

Search our weather history database for the weather conditions in past years. The results will help you decide how hot, cold, wet, or windy it might be!

Date:

Astronomy

Feb. 19, 2013 Rise Set
Actual Time 7:20 AM PST 5:29 PM PST
Civil Twilight 6:44 AM PST 6:05 PM PST
Nautical Twilight 6:03 AM PST 6:46 PM PST
Astronomical Twilight 5:22 AM PST 7:27 PM PST
Moon 11:36 AM PST (2/19) 3:26 AM PST (2/19)
Length of Visible Light 11h 20m
Length of Day
10h 08m
Waxing Gibbous, 68% of the Moon is Illuminated
Feb 19
Waxing Gibbous
Feb 25
Full
Mar 4
Last Quarter
Mar 11
New
Mar 19
First Quarter

Hourly Weather History & Observations

Time (PST) Temp. Windchill Dew Point Humidity Pressure Visibility Wind Dir Wind Speed Gust Speed Precip Events Conditions
12:00 AM 26.6 °F - 26.6 °F 100% 29.82 in 2.0 mi SW 2.3 mph - N/A Snow Light Snow
12:07 AM 26.6 °F - 26.6 °F 100% 29.82 in 1.8 mi SW 2.3 mph - N/A Snow Light Snow
12:18 AM 26.6 °F 22.6 °F 26.6 °F 100% 29.82 in 3.0 mi SW 3.5 mph - N/A Snow Light Snow
1:00 AM 27 °F - 26 °F 95% 29.83 in 3 mi South 3.5 mph - - Snow Light Snow
1:01 AM 26.6 °F - 26.6 °F 100% 29.83 in 2.2 mi South 2.3 mph - N/A Snow Light Snow
1:03 AM 26.6 °F - 26.6 °F 100% 29.83 in 1.8 mi South 2.3 mph - N/A Snow Light Snow
1:25 AM 26.6 °F - 26.6 °F 100% 29.83 in 2.0 mi Calm Calm - N/A Snow Light Snow
1:38 AM 26.6 °F 22.6 °F 26.6 °F 100% 29.83 in 1.8 mi South 3.5 mph - N/A Snow Light Snow
1:49 AM 26.6 °F 22.6 °F 26.6 °F 100% 29.83 in 2.0 mi South 3.5 mph - N/A Snow Light Snow
1:58 AM 26.6 °F 22.6 °F 26.6 °F 100% 29.83 in 2.2 mi South 3.5 mph - N/A Snow Light Snow
2:00 AM 26.6 °F 22.6 °F 26.6 °F 100% 29.83 in 2.5 mi South 3.5 mph - N/A Snow Light Snow
2:06 AM 26.6 °F 22.6 °F 26.6 °F 100% 29.83 in 3.0 mi South 3.5 mph - N/A Snow Light Snow
2:13 AM 26.6 °F 22.6 °F 24.8 °F 93% 29.84 in 6.0 mi South 3.5 mph - N/A Snow Light Snow
2:40 AM 26.6 °F 21.2 °F 24.8 °F 93% 29.84 in 5.0 mi SW 4.6 mph - N/A Snow Light Snow
3:00 AM 26.6 °F 22.6 °F 24.8 °F 93% 29.85 in 4.0 mi SW 3.5 mph 19.6 mph N/A Snow Light Snow
3:36 AM 24.8 °F - 24.8 °F 100% 29.85 in 5.0 mi SSW 2.3 mph - N/A Snow Light Snow
3:38 AM 24.8 °F 16.9 °F 24.8 °F 100% 29.85 in 6.0 mi SSW 6.9 mph - N/A Snow Light Snow
3:45 AM 24.8 °F 20.5 °F 24.8 °F 100% 29.85 in 9.0 mi SW 3.5 mph - N/A Snow Light Snow
4:08 AM 24.8 °F 19.1 °F 24.8 °F 100% 29.85 in 5.0 mi WSW 4.6 mph - N/A Snow Light Snow
4:22 AM 24.8 °F 20.5 °F 24.8 °F 100% 29.86 in 2.5 mi SW 3.5 mph - N/A Snow Light Snow
4:24 AM 24.8 °F - 24.8 °F 100% 29.86 in 2.5 mi SW 2.3 mph - N/A Snow Light Snow
4:28 AM 24.8 °F - 24.8 °F 100% 29.86 in 3.0 mi SW 2.3 mph - N/A Snow Light Snow
4:33 AM 26.6 °F 22.6 °F 24.8 °F 93% 29.86 in 6.0 mi SW 3.5 mph - N/A Snow Light Snow
4:59 AM 24.8 °F - 24.8 °F 100% 29.86 in 5.0 mi SW 2.3 mph - N/A Snow Light Snow
5:00 AM 24.8 °F - 24.8 °F 100% 29.86 in 4.0 mi SW 2.3 mph - N/A Snow Light Snow
5:03 AM 26.6 °F 22.6 °F 24.8 °F 93% 29.86 in 2.5 mi SW 3.5 mph - N/A Snow Light Snow
5:07 AM 24.8 °F 20.5 °F 24.8 °F 100% 29.86 in 1.8 mi SW 3.5 mph - N/A Snow Light Snow
5:51 AM 24.8 °F - 24.8 °F 100% 29.87 in 2.0 mi SSW 2.3 mph - N/A Snow Light Snow
6:00 AM 24.8 °F - 24.8 °F 100% 29.87 in 2.5 mi SSW 2.3 mph - N/A Snow Light Snow
6:23 AM 26.6 °F 22.6 °F 24.8 °F 93% 29.87 in 3.0 mi WSW 3.5 mph - N/A Snow Light Snow
7:00 AM 26 °F - 25 °F 92% 29.88 in 5 mi WSW 3.5 mph - - Snow Light Snow
7:00 AM 26.6 °F 22.6 °F 24.8 °F 93% 29.88 in 5.0 mi WSW 3.5 mph - N/A Snow Light Snow
7:13 AM 26.6 °F - 24.8 °F 93% 29.88 in 2.2 mi North - - N/A Snow Light Snow
7:19 AM 26.6 °F - 24.8 °F 93% 29.88 in 1.8 mi WSW 2.3 mph - N/A Snow Light Snow
7:23 AM 26.6 °F - 24.8 °F 93% 29.88 in 1.8 mi Variable 2.3 mph - N/A Snow Light Snow
7:24 AM 26.6 °F - 24.8 °F 93% 29.88 in 2.0 mi Variable 2.3 mph - N/A Snow Light Snow
7:54 AM 26.6 °F - 24.8 °F 93% 29.89 in 3.0 mi Calm Calm - N/A Snow Light Snow
8:00 AM 26.6 °F - 24.8 °F 93% 29.89 in 3.0 mi Calm Calm - N/A Snow Light Snow
8:18 AM 26.6 °F - 24.8 °F 93% 29.90 in 6.0 mi Variable 2.3 mph - N/A Snow Light Snow
9:00 AM 26.6 °F 22.6 °F 24.8 °F 93% 29.91 in 9.0 mi WNW 3.5 mph - N/A Snow Light Snow
10:00 AM 27 °F - 24 °F 82% 29.93 in 10 mi WNW 6.9 mph - - Snow Light Snow
10:22 AM 26.6 °F 21.2 °F 23.0 °F 86% 29.92 in 5.0 mi NW 4.6 mph - N/A Snow Light Snow
10:30 AM 26.6 °F 20.0 °F 23.0 °F 86% 29.93 in 2.5 mi NW 5.8 mph - N/A Snow Light Snow
10:43 AM 26.6 °F - 24.8 °F 93% 29.93 in 3.0 mi North - - N/A Snow Light Snow
10:48 AM 26.6 °F 20.0 °F 24.8 °F 93% 29.93 in 6.0 mi NW 5.8 mph - N/A Snow Light Snow
10:50 AM 26.6 °F 20.0 °F 24.8 °F 93% 29.93 in 8.0 mi WNW 5.8 mph - N/A Snow Light Snow
10:54 AM 26.6 °F 20.0 °F 24.8 °F 93% 29.93 in 9.0 mi NW 5.8 mph - N/A Snow Light Snow
10:57 AM 26.6 °F 21.2 °F 24.8 °F 93% 29.94 in 9.0 mi NW 4.6 mph - N/A   Overcast
10:59 AM 26.6 °F 21.2 °F 24.8 °F 93% 29.94 in 9.0 mi NW 4.6 mph - N/A   Overcast
11:00 AM 26.6 °F 20.0 °F 23.0 °F 86% 29.94 in 9.0 mi NW 5.8 mph - N/A   Overcast
11:01 AM 26.6 °F 19.1 °F 23.0 °F 86% 29.94 in 9.0 mi NW 6.9 mph - N/A   Overcast
12:00 PM 28.4 °F 21.2 °F 23.0 °F 80% 29.94 in 9.0 mi West 6.9 mph - N/A   Overcast
12:10 PM 30.2 °F 25.4 °F 23.0 °F 75% 29.94 in 9.0 mi NW 4.6 mph - N/A   Overcast
12:16 PM 30.2 °F 23.4 °F 23.0 °F 75% 29.94 in 9.0 mi NW 6.9 mph - N/A   Overcast
12:27 PM 30.2 °F 25.4 °F 23.0 °F 75% 29.94 in 9.0 mi NNW 4.6 mph - N/A   Overcast
12:30 PM 30.2 °F 24.3 °F 24.8 °F 80% 29.94 in 9.0 mi WNW 5.8 mph - N/A   Overcast
12:32 PM 30.2 °F 24.3 °F 23.0 °F 75% 29.94 in 9.0 mi WNW 5.8 mph - N/A   Overcast
12:33 PM 30.2 °F 24.3 °F 23.0 °F 75% 29.94 in 9.0 mi WNW 5.8 mph - N/A   Overcast
1:00 PM 29 °F - 23 °F 69% 29.95 in 10 mi WSW 11.5 mph - -   Overcast
1:00 PM 30.2 °F 20.2 °F 23.0 °F 75% 29.95 in 9.0 mi WSW 12.7 mph - N/A   Overcast
2:00 PM 30.2 °F - 23.0 °F 75% 29.95 in 9.0 mi North - - N/A   Overcast
2:14 PM 28.4 °F - 23.0 °F 80% 29.95 in 9.0 mi North - - N/A   Overcast
2:30 PM 30.2 °F 26.7 °F 23.0 °F 75% 29.96 in 9.0 mi West 3.5 mph - N/A   Overcast
3:00 PM 28.4 °F 22.2 °F 23.0 °F 80% 29.96 in 9.0 mi WSW 5.8 mph - N/A   Overcast
5:00 PM 28.4 °F - 23.0 °F 80% 29.96 in 9.0 mi SW 2.3 mph - N/A   Overcast
5:43 PM 28.4 °F - 24.8 °F 86% 29.97 in 9.0 mi WSW 2.3 mph - N/A Snow Light Snow
5:54 PM 26.6 °F - 24.8 °F 93% 29.97 in 9.0 mi Calm Calm - N/A   Overcast
6:00 PM 28.4 °F 24.6 °F 23.0 °F 80% 29.97 in 9.0 mi South 3.5 mph - N/A   Overcast
6:27 PM 28.4 °F 23.3 °F 24.8 °F 86% 29.98 in 9.0 mi South 4.6 mph - N/A Snow Light Snow
6:38 PM 26.6 °F 22.6 °F 24.8 °F 93% 29.98 in 9.0 mi South 3.5 mph - N/A   Overcast
7:00 PM 27 °F - 24 °F 85% 29.99 in 10 mi South 4.6 mph - -   Overcast
7:00 PM 26.6 °F 21.2 °F 24.8 °F 93% 29.99 in 9.0 mi South 4.6 mph - N/A   Overcast
8:00 PM 26.6 °F 20.0 °F 24.8 °F 93% 29.99 in 9.0 mi SSE 5.8 mph - N/A   Overcast
8:14 PM 26.6 °F 20.0 °F 24.8 °F 93% 29.99 in 9.0 mi SSE 5.8 mph - N/A Snow Light Snow
8:23 PM 26.6 °F 20.0 °F 24.8 °F 93% 29.99 in 9.0 mi South 5.8 mph - N/A   Overcast
8:28 PM 26.6 °F 20.0 °F 24.8 °F 93% 29.99 in 9.0 mi SSE 5.8 mph - N/A Snow Light Snow
8:48 PM 26.6 °F 19.1 °F 24.8 °F 93% 29.99 in 9.0 mi SSE 6.9 mph - N/A   Overcast
9:00 PM 26.6 °F 20.0 °F 24.8 °F 93% 29.99 in 9.0 mi SSE 5.8 mph - N/A   Overcast
9:11 PM 26.6 °F 19.1 °F 24.8 °F 93% 29.99 in 9.0 mi South 6.9 mph - N/A Snow Light Snow
10:00 PM 26 °F - 24 °F 91% 29.99 in 10 mi SSE 8.1 mph - - Snow Light Snow
10:00 PM 26.6 °F 18.2 °F 24.8 °F 93% 29.99 in 9.0 mi SSE 8.1 mph - N/A Snow Light Snow
10:05 PM 26.6 °F 19.1 °F 24.8 °F 93% 29.99 in 9.0 mi SSE 6.9 mph - N/A   Overcast
11:00 PM 26.6 °F 19.1 °F 24.8 °F 93% 29.98 in 9.0 mi South 6.9 mph - N/A   Overcast
11:19 PM 26.6 °F 17.5 °F 24.8 °F 93% 29.98 in 9.0 mi SSE 9.2 mph - N/A Snow Light Snow
11:41 PM 26.6 °F 19.1 °F 24.8 °F 93% 29.98 in 9.0 mi South 6.9 mph - N/A   Overcast
11:59 PM 26.6 °F 19.1 °F 24.8 °F 93% 29.98 in 9.0 mi SSE 6.9 mph - N/A Snow Light Snow